Overview Statistics Trail Chart Weather Telemetry Raw packets
 

This is the latest recevied weather packets stored in our database for station/object KBTL-WX. If no packets are shown the sender has not sent any weather packets the latest 10 day(s).

<< 35 36 37 38 39 >>
Time Temp. Humidity Pressure Rain* Wind** Luminosity Snow
1777116630 10° C 91% 978.1 hPa 0 mm - - -
1777115717 10.56° C 91% 978.2 hPa 0 mm - - -
1777114835 10.56° C 91% 978.2 hPa 0 mm - - -
1777113031 11.67° C 89% 977.6 hPa 0 mm - - -
1777112117 11.11° C 89% 977.6 hPa 0 mm - - -
1777111234 11.67° C 92% 977.5 hPa 0 mm - - -
1777110317 11.67° C 94% 976.6 hPa 0 mm - - -
1777109428 10.56° C 94% 976.5 hPa 0 mm - - -
1777108512 11.11° C 94% 976.5 hPa 0 mm - - -
1777107631 11.11° C 94% 976.5 hPa 0 mm - - -
1777106718 11.67° C 93% 975.7 hPa 0 mm - - -
1777105825 11.67° C 94% 976 hPa 0 mm - - -
1777104917 12.78° C 94% 976.1 hPa 0 mm - - -
1777104033 12.78° C 94% 976.1 hPa 0 mm - - -
1777103117 12.78° C 89% 975.1 hPa 0 mm - - -
1777102224 12.78° C 89% 975.1 hPa 0 mm - - -
1777101317 12.22° C 89% 975.1 hPa 0 mm - - -
1777100436 12.22° C 89% 975.1 hPa 0 mm - - -
1777099517 12.22° C 90% 975.3 hPa 0 mm - - -
1777098627 12.22° C 92% 975.6 hPa 0 mm - - -
1777097717 12.78° C 92% 975.6 hPa 0 mm - - -
1777096838 12.78° C 92% 975.6 hPa 0 mm - - -
1777095918 12.78° C 91% 976.5 hPa 0 mm - - -
1777095030 13.33° C 90% 975.8 hPa 0 mm - - -
1777094115 13.33° C 90% 975.8 hPa 0 mm - - -

* Rain latest hour (hover to see other rain measurements)
** Current wind speed in m/s (hover to see current wind gust speed)